Regional Weather Roundup
Issued by NWS

Home | Current Version | Previous Version | Text Only | Print | Product List | Glossary On
Versions: 1 2 3 4 5 6 7 8 9 10 11 12 13 14 15 16 17 18 19 20 21 22 23 24 25 26 27 28
000
ASUS45 KBOI 231110
RWRID

IDAHO REGIONAL WEATHER ROUNDUP
NATIONAL WEATHER SERVICE BOISE ID
500 AM MDT WED AUG 23 2017

NOTE: "FAIR" INDICATES FEW OR NO CLOUDS BELOW 12000 FEET
WITH NO SIGNIFICANT WEATHER AND/OR OBSTRUCTIONS TO VISIBILITY

IDZ012-014-231200-
SOUTHWEST IDAHO


CITY           SKY/WX    TMP DP  RH WIND       PRES   REMARKS
BOISE          PTCLDY    70  40  33 SE8       30.00R
CALDWELL       PTCLDY    61  54  77 E5        29.98S
MOUNTAIN HOME  CLOUDY    69  46  43 E7        30.01S
$$

IDZ016-017-231200-
SOUTHCENTRAL IDAHO


CITY           SKY/WX    TMP DP  RH WIND       PRES   REMARKS
BURLEY         CLOUDY    66  49  54 SE5       30.09S
JEROME         CLOUDY    72  49  44 NW8       30.09F
TWIN FALLS     CLOUDY    78  44  29 S9G20     30.09R
$$

IDZ019>023-231200-
SOUTHEAST IDAHO


CITY           SKY/WX    TMP DP  RH WIND       PRES   REMARKS
IDAHO FALLS    CLOUDY    50  46  86 NE3       30.17S
POCATELLO      CLOUDY    61  49  64 NE7       30.15S
REXBURG        CLEAR     51  41  68 E5        30.19S
$$

IDZ006-010-011-018-031-032-231200-
CENTRAL IDAHO MOUNTAINS


CITY           SKY/WX    TMP DP  RH WIND       PRES   REMARKS
MCCALL         PTCLDY    50  42  74 CALM      30.14R
HAILEY         MOCLDY    55  36  47 NW10      30.21F
STANLEY          N/A     40  31  70 CALM      30.29F
SALMON         CLEAR     49  36  61 CALM      30.14S
CHALLIS        CLEAR     53  34  48 S6        30.19R HAZE
$$

IDZ002-004-006-007-026-231200-
NORTHERN IDAHO


CITY           SKY/WX    TMP DP  RH WIND       PRES   REMARKS
LEWISTON       CLEAR     67  41  38 CALM      29.95S
LOWELL           N/A     56  48  74 CALM      30.04R
COEUR D`ALENE  CLEAR     57  51  80 S6        30.00R
MULLAN PASS    CLEAR     61  35  37 NW5       30.19S
$$




USA.gov is the U.S. government's official web portal to all federal, state and local government web resources and services.